Weather History for Lancaster, OH

Change the Weather History Date:

Wednesday, October 19, 2011

  Actual Average Record
Temperature  
Mean Temperature 52 °F -  
Max Temperature 55 °F 61 °F 85 °F (1953)
Min Temperature 48 °F 37 °F 25 °F (1976)
Degree Days  
Heating Degree Days 14    
Growing Degree Days 2 (Base 50)    
Moisture  
Dew Point 50 °F    
Average Humidity 94    
Maximum Humidity 100    
Minimum Humidity 86    
Precipitation  
Precipitation 1.38 in - - ()
Sea Level Pressure  
Sea Level Pressure 29.37 in    
Wind  
Wind Speed 7 mph (East)    
Max Wind Speed 20 mph    
Max Gust Speed 30 mph    
Visibility 4 miles    
Events Fog , Rain    
Averages and records for this station are not official NWS values.
T = Trace of Precipitation, MM = Missing Value Source: NWS Daily Summary

Daily Weather History Graph

Daily Weather History Graph

Search for Another Location

Airport:

Trip Planner

Search our weather history database for the weather conditions in past years. The results will help you decide how hot, cold, wet, or windy it might be!

Date:

Astronomy

Oct. 19, 2011 Rise Set
Actual Time 7:44 AM EDT 6:45 PM EDT
Civil Twilight 7:17 AM EDT 7:13 PM EDT
Nautical Twilight 6:46 AM EDT 7:44 PM EDT
Astronomical Twilight 6:14 AM EDT 8:15 PM EDT
Moon No Moon Rise 2:14 PM EDT (10/19)
Length of Visible Light 11h 55m
Length of Day
11h 01m
Waning Gibbous, 55% of the Moon is Illuminated
Oct 19
Waning Gibbous
Oct 19
Last Quarter
Oct 26
New
Nov 2
First Quarter
Nov 10
Full

Hourly Weather History & Observations

Time (EDT) Temp. Dew Point Humidity Pressure Visibility Wind Dir Wind Speed Gust Speed Precip Events Conditions
12:53 AM 48.9 °F 46.0 °F 90% 29.58 in 10.0 mi East 13.8 mph 23.0 mph 0.01 in   Partly Cloudy
1:53 AM 50.0 °F 46.0 °F 86% 29.57 in 10.0 mi ENE 6.9 mph - N/A   Overcast
2:53 AM 48.9 °F 46.9 °F 93% 29.57 in 9.0 mi NNE 3.5 mph - N/A   Overcast
3:29 AM 48.2 °F 46.4 °F 93% 29.57 in 6.0 mi NW 3.5 mph - 0.00 in   Overcast
3:53 AM 48.9 °F 46.9 °F 93% 29.56 in 6.0 mi North 5.8 mph - 0.00 in   Overcast
4:39 AM 48.2 °F 46.4 °F 93% 29.54 in 6.0 mi NE 3.5 mph - N/A   Overcast
4:53 AM 48.9 °F 46.9 °F 93% 29.55 in 5.0 mi ENE 3.5 mph - 0.00 in Rain Light Rain
5:00 AM 48.2 °F 46.4 °F 93% 29.55 in 4.0 mi Calm Calm - 0.02 in Rain Rain
5:53 AM 48.0 °F 46.9 °F 96% 29.54 in 3.0 mi NE 3.5 mph - 0.14 in Rain Rain
6:28 AM 48.2 °F 46.4 °F 93% 29.52 in 3.0 mi East 6.9 mph - 0.05 in Rain Light Rain
7:19 AM 48.2 °F 46.4 °F 93% 29.49 in 4.0 mi ENE 6.9 mph - 0.02 in Rain Light Rain
7:51 AM 48.2 °F 46.4 °F 93% 29.50 in 5.0 mi Calm Calm - 0.03 in Rain Light Rain
7:53 AM 48.9 °F 46.9 °F 93% 29.50 in 5.0 mi East 4.6 mph - 0.03 in Rain Light Rain
8:22 AM 48.2 °F 46.4 °F 93% 29.50 in 4.0 mi ESE 4.6 mph - 0.03 in Rain Light Rain
8:48 AM 48.2 °F 48.2 °F 100% 29.49 in 2.0 mi East 4.6 mph - 0.08 in Rain Rain
8:49 AM 48.9 °F 48.0 °F 97% 29.49 in 2.0 mi East 4.6 mph - 0.08 in Rain Rain
9:11 AM 48.2 °F 48.2 °F 100% 29.49 in 2.5 mi Variable 3.5 mph - 0.04 in Rain Light Rain
9:29 AM 50.0 °F 48.2 °F 94% 29.48 in 2.0 mi East 5.8 mph - 0.08 in Rain Rain
9:44 AM 50.0 °F 48.2 °F 94% 29.47 in 2.5 mi ESE 4.6 mph - 0.11 in Rain Light Rain
9:53 AM 50.0 °F 48.9 °F 96% 29.47 in 3.0 mi East 3.5 mph - 0.12 in Rain Light Rain
11:01 AM 51.8 °F 50.0 °F 94% 29.45 in 2.5 mi Calm Calm - 0.01 in Rain Rain
11:35 AM 51.8 °F 51.8 °F 100% 29.43 in 3.0 mi East 4.6 mph - 0.07 in Rain Rain
12:20 PM 53.6 °F 51.8 °F 94% 29.42 in 2.0 mi Calm Calm - 0.05 in Rain Rain
12:28 PM 53.6 °F 51.8 °F 94% 29.41 in 2.0 mi Calm Calm - 0.07 in Rain Rain
1:23 PM 55.4 °F 53.6 °F 94% 29.35 in 5.0 mi ENE 4.6 mph - 0.01 in Rain Light Rain
1:31 PM 55.4 °F 53.6 °F 94% 29.34 in 5.0 mi ENE 4.6 mph - 0.01 in Rain Light Rain
1:43 PM 55.4 °F 53.6 °F 94% 29.34 in 4.0 mi East 4.6 mph - 0.02 in Rain Light Rain
1:53 PM 55.9 °F 54.0 °F 93% 29.35 in 5.0 mi ESE 3.5 mph - 0.02 in Rain Light Rain
2:36 PM 55.4 °F 55.4 °F 100% 29.29 in 3.0 mi ENE 6.9 mph - 0.06 in Rain Light Rain
2:53 PM 55.9 °F 55.0 °F 97% 29.29 in 8.0 mi East 5.8 mph - 0.06 in   Overcast
3:48 PM 55.4 °F 53.6 °F 94% 29.25 in 2.0 mi NE 5.8 mph - 0.05 in Rain Rain
3:53 PM 55.9 °F 54.0 °F 93% 29.25 in 2.5 mi NE 5.8 mph - 0.05 in Rain Light Rain
4:01 PM 55.4 °F 53.6 °F 94% 29.25 in 4.0 mi NE 4.6 mph - 0.00 in Rain Light Rain
4:07 PM 55.4 °F 53.6 °F 94% 29.24 in 2.0 mi NE 5.8 mph - 0.01 in Rain Light Rain
4:15 PM 55.4 °F 53.6 °F 94% 29.24 in 1.2 mi Calm Calm - 0.04 in Rain Rain
4:22 PM 55.4 °F 55.4 °F 100% 29.23 in 1.0 mi NNE 3.5 mph - 0.08 in Rain Heavy Rain
4:33 PM 55.4 °F 55.4 °F 100% 29.22 in 1.2 mi Calm Calm - 0.12 in Rain Rain
4:46 PM 55.4 °F 53.6 °F 94% 29.23 in 0.8 mi West 3.5 mph - 0.21 in Rain Heavy Rain
4:53 PM 55.0 °F 54.0 °F 96% 29.23 in 0.5 mi West 4.6 mph - 0.26 in Fog , Rain Heavy Rain
5:19 PM 55.4 °F 53.6 °F 94% 29.25 in 0.8 mi WSW 12.7 mph - 0.21 in Rain Heavy Rain
5:21 PM 55.4 °F 53.6 °F 94% 29.25 in 1.0 mi WSW 12.7 mph - 0.22 in Rain Heavy Rain
5:24 PM 55.4 °F 53.6 °F 94% 29.26 in 1.2 mi WSW 15.0 mph - 0.23 in Rain Heavy Rain
5:39 PM 53.6 °F 51.8 °F 94% 29.24 in 2.0 mi West 16.1 mph 25.3 mph 0.30 in Rain Rain
5:46 PM 53.6 °F 51.8 °F 94% 29.25 in 2.0 mi West 16.1 mph 21.9 mph 0.34 in Rain Heavy Rain
5:51 PM 53.6 °F 51.8 °F 94% 29.25 in 2.5 mi West 17.3 mph 24.2 mph 0.35 in Rain Rain
5:53 PM 53.1 °F 52.0 °F 96% 29.25 in 3.0 mi West 16.1 mph 24.2 mph 0.35 in Rain Rain
6:26 PM 53.6 °F 51.8 °F 94% 29.26 in 2.5 mi West 16.1 mph 27.6 mph 0.13 in Rain Heavy Rain
6:33 PM 53.6 °F 51.8 °F 94% 29.28 in 3.0 mi West 10.4 mph 25.3 mph 0.17 in Rain Heavy Rain
6:53 PM 53.1 °F 51.1 °F 93% 29.30 in 7.0 mi WSW 15.0 mph 23.0 mph 0.19 in Rain Light Rain
7:00 PM 53.6 °F 51.8 °F 94% 29.29 in 4.0 mi West 15.0 mph 24.2 mph 0.02 in Rain Rain
7:53 PM 52.0 °F 48.9 °F 89% 29.28 in 10.0 mi WNW 9.2 mph 20.7 mph 0.06 in Rain Light Rain
8:53 PM 51.1 °F 48.9 °F 92% 29.27 in 10.0 mi SW 10.4 mph 18.4 mph 0.01 in   Mostly Cloudy
9:00 PM 51.8 °F 48.2 °F 88% 29.28 in 10.0 mi SW 11.5 mph 19.6 mph N/A   Mostly Cloudy
9:07 PM 50.0 °F 46.4 °F 87% 29.29 in 10.0 mi SW 19.6 mph 29.9 mph N/A   Overcast
9:53 PM 48.0 °F 46.0 °F 93% 29.31 in 3.0 mi SSW 10.4 mph 20.7 mph 0.00 in Rain Light Rain
10:41 PM 48.2 °F 46.4 °F 93% 29.30 in 8.0 mi SSW 11.5 mph 19.6 mph 0.00 in   Overcast
10:51 PM 48.2 °F 44.6 °F 87% 29.30 in 9.0 mi SSW 12.7 mph 19.6 mph 0.00 in   Overcast
10:53 PM 48.0 °F 45.0 °F 89% 29.29 in 9.0 mi SSW 11.5 mph 19.6 mph 0.00 in   Overcast
11:53 PM 48.0 °F 45.0 °F 89% 29.27 in 10.0 mi SSW 13.8 mph 21.9 mph N/A   Overcast